EW5026 Weather Reports


time (UTC)temp
F
wind
direction
speed
knots
gust
knots
rain 1hr
in
rain 24hr
in
rain mn
in
humidity
%
barometer
mb
20260505200523 54 274 3.5 7.0 0.00 0.64 0.01 56 1008.5
20260505200023 54 237 4.3 7.0 0.00 0.64 0.01 56 1008.5
20260505195522 55 268 3.5 7.0 0.00 0.64 0.01 54 1008.4
20260505195022 55 282 2.6 8.7 0.00 0.64 0.01 56 1008.3
20260505194522 55 292 5.2 8.7 0.00 0.64 0.01 55 1008.3
20260505194022 55 284 3.5 8.7 0.00 0.64 0.01 55 1008.2
20260505193521 55 280 6.1 7.8 0.00 0.64 0.01 56 1008.2
20260505193022 55 272 4.3 7.8 0.00 0.64 0.01 55 1008.2
20260505192521 55 310 5.2 8.7 0.00 0.64 0.01 59 1008.2
20260505192021 55 320 4.3 10.4 0.00 0.64 0.01 61 1008.3
20260505191521 55 314 6.1 10.4 0.00 0.64 0.01 56 1008.4
20260505191022 55 315 5.2 8.7 0.00 0.64 0.01 57 1008.4
20260505190520 55 288 4.3 8.7 0.00 0.64 0.01 60 1008.4
20260505190026 55 307 5.2 8.7 0.00 0.64 0.01 55 1008.3
20260505185522 55 296 4.3 10.4 0.00 0.64 0.01 57 1008.5
20260505185024 55 298 6.1 11.3 0.00 0.64 0.01 58 1008.4
20260505184522 55 332 7.0 11.3 0.00 0.64 0.01 59 1008.5
20260505184021 55 302 5.2 10.4 0.00 0.64 0.01 59 1008.3
20260505183520 56 309 6.1 11.3 0.00 0.64 0.01 58 1008.4
20260505183028 56 310 7.0 11.3 0.00 0.64 0.01 54 1008.4
20260505182519 56 310 4.3 11.3 0.00 0.64 0.01 57 1008.5
20260505182019 56 311 7.8 11.3 0.00 0.64 0.01 58 1008.4
20260505181520 56 303 7.0 10.4 0.00 0.64 0.01 56 1008.4
20260505181020 56 307 5.2 10.4 0.00 0.64 0.01 53 1008.4
20260505180518 56 336 7.0 11.3 0.00 0.64 0.01 54 1008.3
20260505180022 56 316 7.0 11.3 0.00 0.64 0.01 52 1008.3
20260505175518 57 304 7.8 11.3 0.00 0.64 0.01 57 1008.3
20260505175019 57 274 5.2 11.3 0.00 0.64 0.01 55 1008.1
20260505174518 57 249 3.5 7.8 0.00 0.64 0.01 62 1008.0
20260505174018 56 313 6.1 7.8 0.00 0.64 0.01 63 1008.0
20260505173522 56 296 2.6 6.1 0.00 0.64 0.01 62 1008.1
20260505173017 56 242 3.5 7.0 0.00 0.64 0.01 60 1008.0
20260505172516 56 300 2.6 7.0 0.00 0.64 0.01 64 1007.9
20260505172016 56 265 2.6 8.7 0.00 0.64 0.01 62 1007.9
20260505171517 55 329 1.7 8.7 0.00 0.64 0.01 61 1008.0
20260505171017 55 284 4.3 7.0 0.00 0.64 0.01 63 1008.0
20260505170517 55 281 1.7 7.8 0.00 0.64 0.01 65 1008.0
20260505170018 54 271 2.6 7.8 0.00 0.64 0.01 67 1008.1
20260505165516 55 296 2.6 7.8 0.00 0.64 0.01 64 1008.0
20260505165019 55 327 2.6 7.0 0.00 0.64 0.01 67 1007.9
20260505164516 55 349 2.6 7.0 0.00 0.64 0.01 72 1008.0
20260505164016 55 316 2.6 9.6 0.00 0.64 0.01 68 1008.0
20260505163516 55 323 3.5 9.6 0.00 0.64 0.01 69 1008.0
20260505163019 54 360 0.9 3.5 0.00 0.64 0.01 69 1008.0
20260505162515 54 360 0.9 7.8 0.00 0.64 0.01 70 1008.0
20260505162015 54 306 2.6 7.8 0.00 0.64 0.01 72 1008.1
20260505161518 53 280 1.7 4.3 0.00 0.64 0.01 72 1008.0
20260505161015 53 325 2.6 4.3 0.00 0.64 0.01 72 1008.0
20260505160517 53 337 1.7 4.3 0.00 0.64 0.01 74 1008.0
20260505153014 51 355 2.6 5.2 0.00 0.64 0.01 76 1007.7
20260505152514 51 294 2.6 7.0 0.00 0.64 0.01 79 1008.0
20260505152016 50 360 2.6 7.0 0.00 0.64 0.01 80 1007.9
20260505151513 49 348 3.5 6.1 0.00 0.64 0.01 82 1007.8
20260505151013 48 10 3.5 7.0 0.00 0.64 0.01 81 1007.9
20260505150520 48 347 4.3 7.0 0.00 0.64 0.01 82 1008.0
20260505140509 47 315 6.1 9.6 0.00 0.63 0.00 81 1007.8
20260505124557 51 312 5.2 9.6 0.00 0.63 0.00 69 1007.3
20260505124053 51 322 5.2 9.6 0.00 0.63 0.00 71 1007.2
20260505123551 51 331 6.1 9.6 0.00 0.63 0.00 71 1006.9
20260505123054 51 340 5.2 9.6 0.00 0.63 0.00 72 1006.9
20260505122551 51 329 5.2 8.7 0.00 0.63 0.00 73 1006.5
20260505122049 51 322 5.2 8.7 0.00 0.63 0.00 74 1006.2
20260505121549 51 311 6.1 10.4 0.00 0.63 0.00 74 1006.4
20260505121049 51 320 6.1 10.4 0.00 0.63 0.00 73 1006.3
20260505120549 51 300 6.1 12.2 0.00 0.63 0.00 73 1006.4
20260505120053 51 311 6.1 12.2 0.00 0.63 0.00 72 1006.4
20260505115547 51 307 7.8 11.3 0.00 0.63 0.00 73 1006.4
20260505115048 51 311 5.2 9.6 0.00 0.63 0.00 75 1006.3
20260505114553 51 307 6.1 8.7 0.00 0.63 0.00 75 1006.0
20260505114044 51 322 5.2 8.7 0.00 0.63 0.00 75 1005.7
20260505113546 51 312 5.2 8.7 0.00 0.63 0.00 74 1005.6
20260505113043 51 303 4.3 7.8 0.00 0.63 0.00 72 1005.2
20260505112541 52 303 3.5 7.8 0.00 0.63 0.00 72 1005.2
20260505112042 52 296 4.3 8.7 0.00 0.63 0.00 71 1005.3
20260505111541 52 302 4.3 8.7 0.00 0.63 0.00 72 1005.1
20260505111039 52 313 4.3 8.7 0.00 0.63 0.00 73 1004.9
20260505110539 52 275 5.2 7.8 0.00 0.63 0.00 69 1004.9
20260505102030 53 275 3.5 7.0 0.00 0.63 0.00 68 1004.9
20260505101541 53 275 3.5 7.0 0.00 0.63 0.00 69 1005.0
20260505101029 54 284 2.6 7.0 0.00 0.63 0.00 66 1004.9
20260505100528 53 284 1.7 4.3 0.00 0.63 0.00 65 1004.7
20260505100028 53 313 2.6 4.3 0.00 0.63 0.00 66 1004.9
20260505095527 53 285 1.7 5.2 0.00 0.63 0.00 69 1004.8
20260505095029 54 267 2.6 6.1 0.00 0.63 0.00 68 1004.8
20260505094535 54 270 3.5 6.1 0.00 0.63 0.00 69 1004.9
20260505094025 54 263 2.6 5.2 0.00 0.63 0.00 68 1004.9
20260505093524 54 269 1.7 5.2 0.00 0.63 0.00 69 1004.8
20260505093024 55 244 0.9 6.1 0.00 0.63 0.00 68 1004.8
20260505092526 55 256 2.6 7.8 0.00 0.63 0.00 66 1004.8
20260505092023 55 270 3.5 7.8 0.00 0.63 0.00 67 1004.7
20260505091522 55 267 3.5 7.0 0.00 0.63 0.00 68 1004.4
20260505091020 55 276 2.6 6.1 0.00 0.63 0.00 67 1004.3
20260505090520 55 259 2.6 7.0 0.00 0.63 0.00 63 1004.4
20260505090022 56 277 3.5 7.0 0.00 0.63 0.00 61 1004.4
20260505085522 55 275 3.5 7.0 0.00 0.63 0.00 61 1004.2
20260505085021 56 297 3.5 6.1 0.00 0.63 0.00 64 1004.2
20260505084517 56 268 3.5 6.1 0.00 0.63 0.00 61 1004.0
20260505084016 56 261 3.5 5.2 0.00 0.63 0.00 60 1003.8
20260505083515 56 273 2.6 5.2 0.00 0.63 0.00 60 1003.5
20260505083020 56 274 1.7 6.1 0.00 0.63 0.00 62 1003.6
20260505082518 56 260 3.5 6.1 0.00 0.63 0.00 61 1003.5
20260505082017 55 252 1.7 4.3 0.00 0.63 0.00 67 1003.5
20260505081512 56 259 1.7 5.2 0.00 0.63 0.00 63 1003.3
20260505081016 57 256 2.6 5.2 0.00 0.63 0.00 56 1003.1
20260505080510 57 262 2.6 5.2 0.00 0.63 0.00 57 1003.0
20260505080010 57 294 2.6 5.2 0.00 0.63 0.00 59 1003.0
20260505075511 57 287 2.6 5.2 0.00 0.63 0.00 59 1002.9
20260505075016 56 277 2.6 4.3 0.00 0.63 0.00 64 1002.9
20260505074507 56 271 2.6 4.3 0.00 0.63 0.00 64 1002.9
20260505074007 55 261 1.7 3.5 0.00 0.63 0.00 69 1003.0
20260505073508 55 261 0.9 2.6 0.00 0.63 0.00 68 1002.8
20260505073005 55 243 0.0 2.6 0.00 0.63 0.00 72 1002.5
20260505072503 55 250 1.7 3.5 0.00 0.63 0.00 71 1002.5
20260505072002 56 271 1.7 3.5 0.00 0.63 0.00 68 1002.4
20260505071605 56 298 0.9 1.7 0.00 0.63 0.00 67 1002.2
20260505071101 56 298 0.9 2.6 0.00 0.63 0.00 66 1001.9
20260505070600 56 298 0.9 2.6 0.00 0.63 0.00 70 1001.8
20260505070104 56 298 0.9 1.7 0.00 0.63 0.00 70 1002.0
20260505065601 56 298 0.9 1.7 0.00 0.63 0.00 69 1001.9
20260505065056 56 298 0.0 1.7 0.00 0.63 0.00 68 1001.8
20260505064556 56 298 0.0 4.3 0.00 0.63 0.00 67 1001.8
20260505064055 56 303 1.7 4.3 0.00 0.63 0.00 67 1001.7
20260505063554 56 333 0.9 2.6 0.00 0.63 0.00 72 1001.6
20260505063053 57 333 0.9 4.3 0.00 0.63 0.00 72 1001.5
20260505062551 57 333 1.7 5.2 0.00 0.63 0.00 72 1001.2
20260505062056 58 322 3.5 6.1 0.00 0.63 0.00 72 1001.1
20260505061549 58 323 3.5 7.0 0.00 0.63 0.00 72 1001.2
20260505061047 58 344 3.5 8.7 0.00 0.63 0.00 73 1000.8
20260505060547 58 325 5.2 8.7 0.00 0.63 0.00 74 1000.8
20260505060050 58 322 4.3 7.0 0.00 0.63 0.00 77 1000.7
20260505055548 58 331 3.5 4.3 0.00 0.63 0.00 80 1000.9
20260505055044 58 316 2.6 4.3 0.00 0.63 0.00 81 1000.9
20260505054546 58 313 1.7 3.5 0.00 0.63 0.00 82 1000.8
20260505054042 59 324 1.7 2.6 0.00 0.63 0.00 82 1000.8
20260505053540 59 302 0.9 4.3 0.00 0.63 0.00 80 1000.7
20260505053041 60 302 1.7 5.2 0.00 0.63 0.00 79 1000.6
20260505052539 60 267 2.6 6.1 0.00 0.63 0.00 78 1000.7
20260505052038 60 284 2.6 7.0 0.00 0.63 0.00 77 1000.9
20260505051555 60 273 2.6 7.0 0.00 0.63 0.00 77 1000.9
20260505051040 60 269 2.6 6.1 0.00 0.63 0.00 78 1000.9
20260505050535 60 268 2.6 6.1 0.00 0.63 0.00 79 1000.8
20260505041534 60 225 5.2 7.8 0.00 0.63 0.63 76 1000.3
20260505041032 61 244 3.5 8.7 0.01 0.63 0.63 76 1000.2
20260505040533 61 320 4.3 8.7 0.01 0.63 0.63 77 1000.2
20260505040036 61 296 4.3 7.0 0.01 0.63 0.63 76 1000.1
20260505035533 61 328 4.3 7.0 0.01 0.63 0.63 76 1000.2
20260505035032 61 292 4.3 11.3 0.01 0.63 0.63 77 1000.0
20260505034532 62 264 4.3 13.9 0.01 0.63 0.63 75 1000.0
20260505034032 61 243 7.8 14.8 0.01 0.63 0.63 76 999.9
20260505033532 61 223 8.7 14.8 0.01 0.63 0.63 78 999.7
20260505033032 61 209 7.8 16.5 0.01 0.63 0.63 77 999.8
20260505032531 61 242 7.8 16.5 0.01 0.63 0.63 78 1000.2
20260505032030 60 238 8.7 13.9 0.02 0.63 0.63 81 1000.2
20260505031532 60 185 8.7 13.9 0.02 0.62 0.62 82 1000.1
20260505031030 60 236 8.7 14.8 0.09 0.62 0.62 83 1000.3
20260505030530 59 217 9.6 14.8 0.35 0.62 0.62 84 1000.3
20260505030031 58 207 7.0 9.6 0.39 0.62 0.62 87 1000.4
20260505025531 57 209 6.1 7.8 0.40 0.62 0.62 88 1000.6
20260505025031 57 208 4.3 7.8 0.42 0.62 0.62 88 1000.0
20260505024532 57 158 5.2 10.4 0.42 0.62 0.62 88 999.4
20260505024030 57 142 5.2 12.2 0.43 0.62 0.62 88 999.5
20260505023533 57 163 7.8 14.8 0.43 0.62 0.62 88 999.6
20260505023030 58 174 10.4 14.8 0.44 0.62 0.62 87 1000.2
20260505022529 58 186 7.8 13.0 0.45 0.62 0.62 87 1000.0
20260505022031 58 123 5.2 26.1 0.47 0.61 0.61 87 999.4
20260505021531 59 215 13.0 26.1 0.46 0.59 0.59 87 1000.7
20260505021029 59 211 16.5 20.9 0.40 0.52 0.52 86 1000.5
20260505020528 59 271 3.5 7.0 0.23 0.27 0.27 85 1000.4
20260505020028 59 229 0.0 2.6 0.23 0.23 0.23 86 1000.4
20260505015528 59 229 0.0 2.6 0.22 0.22 0.22 84 1000.5
20260505015029 59 229 0.0 5.2 0.20 0.20 0.20 84 1000.4
20260505014528 59 355 0.9 7.0 0.20 0.20 0.20 85 1000.2
20260505014029 59 342 3.5 7.0 0.19 0.19 0.19 84 1000.1
20260505013528 59 323 4.3 12.2 0.19 0.19 0.19 84 1000.2
20260505013027 59 316 6.1 16.5 0.18 0.18 0.18 84 1000.1
20260505012526 59 240 7.8 16.5 0.16 0.16 0.16 84 1000.6
20260505012026 59 306 9.6 14.8 0.14 0.14 0.14 82 1000.2
20260505011527 59 329 8.7 20.9 0.13 0.13 0.13 81 1000.5
20260505011025 60 309 10.4 37.4 0.10 0.10 0.10 78 1000.5
20260505010526 64 289 14.8 37.4 0.03 0.03 0.03 66 1000.9
20260505010026 70 265 14.8 22.6 0.00 0.00 0.00 53 1000.5
20260505005529 71 284 2.6 13.9 0.00 0.00 0.00 56 999.1
20260505005026 72 240 7.0 16.5 0.00 0.00 0.00 54 999.0
20260505004527 73 259 8.7 20.0 0.00 0.00 0.00 55 998.7
20260505004026 74 216 9.6 20.0 0.00 0.00 0.00 55 998.5
20260505003528 74 238 12.2 20.0 0.00 0.00 0.00 54 998.3
20260505003025 74 198 9.6 18.2 0.00 0.00 0.00 54 997.9
20260505002524 74 218 12.2 21.7 0.00 0.00 0.00 54 997.7
20260505002026 74 212 13.9 21.7 0.00 0.00 0.00 54 997.5
20260505001524 74 210 12.2 20.9 0.00 0.00 0.00 54 997.4
20260505001023 74 197 13.0 22.6 0.00 0.00 0.00 53 997.2
20260505000526 74 208 13.9 22.6 0.00 0.00 0.00 53 997.1
20260505000026 74 202 15.6 20.9 0.00 0.00 0.00 52 997.0
20260504235524 74 210 13.0 20.0 0.00 0.00 0.00 52 997.1
20260504235024 74 200 13.9 20.0 0.00 0.00 0.00 52 997.3
20260504234524 75 228 11.3 22.6 0.00 0.00 0.00 52 997.3
20260504234026 75 217 15.6 22.6 0.00 0.00 0.00 50 997.0
20260504233523 75 213 13.9 22.6 0.00 0.00 0.00 50 996.8
20260504233023 75 208 17.4 22.6 0.00 0.00 0.00 49 996.9
20260504232525 76 212 13.9 24.3 0.00 0.00 0.00 49 997.0
20260504232022 76 203 17.4 24.3 0.00 0.00 0.00 48 996.9
20260504231522 76 209 16.5 26.1 0.00 0.00 0.00 49 996.9
20260504231022 76 217 14.8 26.1 0.00 0.00 0.00 49 997.1
20260504230522 76 225 15.6 24.3 0.00 0.00 0.00 48 996.9
20260504230021 76 230 17.4 26.9 0.00 0.00 0.00 48 996.9
20260504225521 76 197 17.4 27.8 0.00 0.00 0.00 47 997.1
20260504225020 76 211 16.5 26.9 0.00 0.00 0.00 47 997.2
20260504224521 77 194 20.0 26.9 0.00 0.00 0.00 46 997.1
20260504224020 78 193 15.6 26.9 0.00 0.00 0.00 46 997.2
20260504223519 78 209 18.2 30.4 0.00 0.00 0.00 46 997.2
20260504223019 78 186 14.8 30.4 0.00 0.00 0.00 46 997.4
20260504222520 78 217 17.4 27.8 0.00 0.00 0.00 45 997.3
20260504222021 78 204 16.5 26.9 0.00 0.00 0.00 45 997.3
20260504221517 78 197 19.1 26.9 0.00 0.00 0.00 45 997.4
20260504221018 78 196 17.4 28.7 0.00 0.00 0.00 46 997.3
20260504220518 78 197 20.0 27.8 0.00 0.00 0.00 45 997.4
20260504220025 79 223 19.1 24.3 0.00 0.00 0.00 44 997.4
20260504215516 79 204 15.6 24.3 0.00 0.00 0.00 44 997.7
20260504215015 79 227 16.5 24.3 0.00 0.00 0.00 43 997.7
20260504214520 79 221 18.2 27.8 0.00 0.00 0.00 43 997.8
20260504214018 79 233 19.1 27.8 0.00 0.00 0.00 44 997.8
20260504213514 79 169 18.2 25.2 0.00 0.00 0.00 44 997.9
20260504213013 80 203 17.4 24.3 0.00 0.00 0.00 44 997.9
20260504212512 80 149 16.5 24.3 0.00 0.00 0.00 43 998.1
20260504212011 80 218 17.4 26.1 0.00 0.00 0.00 45 997.9
20260504211523 79 205 20.9 26.1 0.00 0.00 0.00 44 998.2
20260504211010 80 185 14.8 26.1 0.00 0.00 0.00 46 998.3
20260504210510 80 227 18.2 26.1 0.00 0.00 0.00 45 998.3
20260504210010 80 211 19.1 24.3 0.00 0.00 0.00 46 998.4
20260504205511 80 212 15.6 26.9 0.00 0.00 0.00 46 998.4
20260504205008 79 196 17.4 27.8 0.00 0.00 0.00 45 998.6
20260504204515 79 210 20.0 27.8 0.00 0.00 0.00 45 998.7
20260504204008 79 213 19.1 23.5 0.00 0.00 0.00 46 998.7
20260504203510 79 215 15.6 26.9 0.00 0.00 0.00 46 998.6
20260504203010 79 199 18.2 26.9 0.00 0.00 0.00 46 998.7
20260504202507 79 213 19.1 26.1 0.00 0.00 0.00 44 998.7
20260504202006 79 214 19.1 26.1 0.00 0.00 0.00 46 998.8
20260504201506 79 204 17.4 25.2 0.00 0.00 0.00 47 998.8
20260504201006 79 209 17.4 23.5 0.00 0.00 0.00 46 999.1